Regional Weather Roundup
Issued by NWS

Home | Current Version | Previous Version | Graphics & Text | Print | Product List | Glossary On
Versions: 1 2 3 4 5 6 7 8 9 10 11 12 13 14 15 16 17 18 19 20 21 22 23 24 25 26 27
000
ASUS45 KBOU 261207
RWRCO

WEATHER ROUNDUP FOR COLORADO
NATIONAL WEATHER SERVICE DENVER/BOULDER CO
500 AM MST SUN FEB 26 2017

NOTE: "FAIR" INDICATES FEW OR NO CLOUDS BELOW 12000 FEET WITH NO
SIGNIFICANT WEATHER AND/OR OBSTRUCTIONS TO VISIBILITY.

COZ001>005-013-030-031-261300-
...NORTHWEST COLORADO...

CITY           SKY/WX    TMP DP  RH WIND       PRES   REMARKS
CRAIG          FAIR       2  -3  80 CALM      29.91S
HAYDEN         FAIR       7  -2  66 NE5       29.87F WCI  -2
MEEKER         FAIR       2  -3  80 CALM      29.90F
MOUNT WERNER   NOT AVBL
STEAMBOAT SPGS FAIR       7   2  82 E5        29.87S WCI  -2
WALDEN         NOT AVBL
$$

COZ006>008-011-261300-
...WEST CENTRAL VALLEYS...

CITY           SKY/WX    TMP DP  RH WIND       PRES   REMARKS
GRAND JUNCTION FAIR      19  11  70 CALM      29.94S
MONTROSE       FAIR      23  15  71 S5        29.94R WCI  17
EAGLE          MOCLDY    13   6  74 NE3       29.92R
RIFLE          FAIR      16   9  74 CALM      29.94R
DELTA          FAIR      22  11  62 CALM      29.94R
NUCLA          FAIR      23  19  86 E3        29.95S
$$

COZ017>023-064>068-261300-
...SOUTHWEST COLORADO...

CITY           SKY/WX    TMP DP  RH WIND       PRES   REMARKS
DURANGO        FAIR      23   8  52 W3        29.86R
CORTEZ         FAIR      21  17  84 NE3       29.90R
PAGOSA SPRINGS FAIR      15   6  68 CALM      29.84S
TELLURIDE      LGT SNOW  13  12  92 W5        29.84R WCI   6
WOLF CREEK PAS LGT SNOW   3   1  92 S13G20    29.76F WCI -14
$$

COZ009-010-012-014-032>034-037-058>063-261300-
...CENTRAL COLORADO...

CITY           SKY/WX    TMP DP  RH WIND       PRES   REMARKS
ASPEN          FAIR       7   1  76 SW6       29.83S WCI  -3
BUENA VISTA    FAIR      16  -4  41 NW10      29.76S WCI   3
COPPER MTN     FAIR       1 -15  46 MISG      29.64R
BERTHOUD PASS  FAIR      -9 -18  64 NW32G38   29.55F WCI -39
COTTONWOOD PAS FAIR      14  -6  41 NW10G24   29.68F WCI   1
GUNNISON       FAIR       8   5  87 NW5       29.86R WCI   0
KREMMLING      FAIR       5   0  78 E3        29.87R
LEADVILLE      FAIR       1  -9  62 NE5       29.73R WCI  -9
MONARCH PASS   CLOUDY     0  -4  85 W37G45    29.71S WCI -28
SALIDA         FAIR      22   1  39 SW15G24   29.85S WCI   9
SUNLIGHT       NOT AVBL
WILKERSON PASS FAIR       3 -13  47 W13G30    29.62R WCI -14
$$

COZ069>075-261300-
...SAN LUIS VALLEY/SANGRE DE CRISTO MOUNTAINS...

CITY           SKY/WX    TMP DP  RH WIND       PRES   REMARKS
ALAMOSA        FAIR      15   9  76 CALM      29.81R
LA VETA PASS   CLOUDY    10   5  79 SW9G22    29.72S WCI  -2
SAGUACHE       FAIR      14   5  67 N9        29.81R WCI   2
$$

COZ035-036-038>040-261300-
...NORTHERN COLORADO FRONT RANGE...

CITY           SKY/WX    TMP DP  RH WIND       PRES   REMARKS
DENVER INTL AP FAIR      15   5  64 SE7       29.78R WCI   5
DMNS CITY PARK   N/A     20   4  48 MISG      29.78S
AURORA         PTCLDY    15   1  54 SE9       29.77S WCI   3
FRONT RANGE AP FAIR      18   9  68 S8        29.79S WCI   7
ERIE MUNI ARPT FAIR      17   7  64 CALM      29.79S
BOULDER MUN AP FAIR      21   9  58 E5        29.78R WCI  15
CENTENNIAL     FAIR      17   2  51 S6        29.76S WCI   9
BROOMFIELD     FAIR      21   5  49 NE6       29.77S WCI  14
FORT COLLINS   FAIR      17  11  77 S6        29.79S WCI   9
LONGMONT       FAIR      19  10  68 N8        29.81S WCI   9
$$

COZ041-046-047-076>085-087-088-261300-
...PIKES PEAK/PALMER DIVIDE AND SOUTHERN FOOTHILLS...

CITY           SKY/WX    TMP DP  RH WIND       PRES   REMARKS
COLO. SPRINGS  FAIR      21  -3  35 NE6       29.75S WCI  13
A. F. ACADEMY  FAIR      21  -3  35 E3        29.73S
SCHRIEVER AFB  FAIR      18  -1  43 N7        29.77R WCI   9
ELLICOTT       NOT AVBL
FALCON         FAIR      17  -1  45 N7        29.76R WCI   7
FORT CARSON    FAIR      16  -3  44 CALM      29.75S
LIMON          FAIR       1  -1  91 NW5       29.79S WCI  -9
MONUMENT HILL  FAIR      10   0  61 CALM      29.75S
TRINIDAD       FAIR      14   0  53 W10       29.80R WCI   1
$$

COZ042>045-048>051-090-091-261300-
...NORTHEAST COLORADO...

CITY           SKY/WX    TMP DP  RH WIND       PRES   REMARKS
GREELEY ARPT   FAIR      15   8  73 E3        29.82R
AKRON          FAIR      15   6  67 N5        29.82R WCI   8
BURLINGTON     FAIR      12   4  70 NW7       29.83S WCI   1
WRAY           NOT AVBL
STERLING       FAIR      14   5  67 SW6       29.82F WCI   5
HOLYOKE        FAIR      19  12  73 W8        29.85S WCI   9
FORT MORGAN    FAIR      21   4  48 CALM      29.83S
$$

COZ086-089-092>099-261300-
...SOUTHEAST COLORADO...

CITY           SKY/WX    TMP DP  RH WIND       PRES   REMARKS
PUEBLO         FAIR      18   2  49 NE3       29.81R
LA JUNTA       FAIR      15   5  64 N5        29.83S WCI   8
LAMAR          FAIR       8   1  73 SW5       29.84R WCI   0
SPRINGFIELD      N/A     12   2  64 W5        29.81R WCI   4
$$




USA.gov is the U.S. government's official web portal to all federal, state and local government web resources and services.